This is the latest recevied weather packets stored in our database for station/object W6UA-13. If no packets are shown the sender has not sent any weather packets the latest 10 day(s).
| Time | Temp. | Humidity | Pressure | Rain* | Wind** | Luminosity | Snow |
|---|---|---|---|---|---|---|---|
| 1777313996 | 15.56° C | 65% | 1017.4 hPa | 0 mm | - | 478 W/m² | - |
| 1777313096 | 15.56° C | 65% | 1017.3 hPa | 0 mm | - | 306 W/m² | - |
| 1777312196 | 16.11° C | 63% | 1017 hPa | 0 mm | - | 800 W/m² | - |
| 1777311296 | 15.56° C | 65% | 1016.9 hPa | 0 mm | - | 172 W/m² | - |
| 1777310396 | 15.56° C | 66% | 1016.8 hPa | 0 mm | - | 504 W/m² | - |
| 1777309496 | 16.11° C | 63% | 1016.5 hPa | 0 mm | - | 102 W/m² | - |
| 1777308596 | 15.56° C | 62% | 1016.5 hPa | 0 mm | - | 482 W/m² | - |
| 1777307696 | 15.56° C | 65% | 1016.4 hPa | 0 mm | - | 541 W/m² | - |
| 1777306796 | 15° C | 67% | 1016.4 hPa | 0 mm | - | 492 W/m² | - |
| 1777305896 | 14.44° C | 68% | 1016.4 hPa | 0 mm | - | 441 W/m² | - |
| 1777304996 | 13.89° C | 69% | 1016.4 hPa | 0 mm | - | 401 W/m² | - |
| 1777304096 | 13.33° C | 73% | 1016.5 hPa | 0 mm | - | 309 W/m² | - |
| 1777303196 | 12.22° C | 79% | 1016.5 hPa | 0 mm | - | 190 W/m² | - |
| 1777302296 | 11.67° C | 83% | 1016.4 hPa | 0 mm | - | 120 W/m² | - |
| 1777301396 | 11.11° C | 84% | 1016.1 hPa | 0 mm | - | 93 W/m² | - |
| 1777300496 | 10.56° C | 85% | 1016 hPa | 0 mm | - | 72 W/m² | - |
| 1777299596 | 10.56° C | 86% | 1016 hPa | 0 mm | - | 47 W/m² | - |
| 1777298696 | 10° C | 87% | 1015.9 hPa | 0 mm | - | 35 W/m² | - |
| 1777297796 | 10° C | 87% | 1015.7 hPa | 0 mm | - | 30 W/m² | - |
| 1777296896 | 9.44° C | 87% | 1015.7 hPa | 0 mm | - | 12 W/m² | - |
| 1777295996 | 9.44° C | 87% | 1015.5 hPa | 0 mm | - | 0 W/m² | - |
| 1777295096 | 9.44° C | 87% | 1015.4 hPa | 0 mm | - | 0 W/m² | - |
| 1777294196 | 9.44° C | 87% | 1015.4 hPa | 0 mm | - | 0 W/m² | - |
| 1777293296 | 9.44° C | 87% | 1015.3 hPa | 0 mm | - | 0 W/m² | - |
| 1777292396 | 9.44° C | 88% | 1015.2 hPa | 0 mm | - | 0 W/m² | - |
* Rain latest hour (hover to see other rain measurements)
** Current wind speed in m/s (hover to see current wind gust speed)